Weather Roundup
Issued by NWS Chicago, IL

Home | Current Version | Previous Version | Text Only | Print | Product List | Glossary On
Versions: 1 2 3 4 5 6 7 8 9 10 11 12 13 14 15 16 17 18 19 20 21 22 23 24 25 26 27 28 29 30 31 32 33 34 35 36 37 38 39 40 41 42 43 44 45 46 47 48 49 50
000
NZUS59 KLOT 280708
HRRLOT

CHICAGO AREA WEATHER ROUNDUP
NATIONAL WEATHER SERVICE CHICAGO/ROMEOVILLE IL
200 AM CDT TUE MAR 28 2017

NOTE: "FAIR" INDICATES FEW OR NO CLOUDS BELOW 12,000 FEET WITH NO
SIGNIFICANT WEATHER AND/OR OBSTRUCTIONS TO VISIBILITY.

* THESE STATIONS ARE NOT UNDER NWS QUALITY CONTROL. THEY ALSO MAY NOT
  REPORT WEATHER SUCH AS PRECIPITATION OR FOG.

ILZ005-006-012>014-019>023-280800-
NORTHEAST ILLINOIS

CITY           SKY/WX    TMP DP  RH WIND       PRES   REMARKS
OHARE          CLOUDY    42  36  79 N9        29.98F
MIDWAY         CLOUDY    42  36  79 NE8       29.98F
AURORA         CLOUDY    42  38  85 NE9       29.99S
LANSING*       CLEAR     38  37  97 N8        29.98F
JOLIET*        MOCLDY    42  39  88 NE6       29.98S
WAUKEGAN       CLOUDY    39  36  89 N8        29.99F
DUPAGE AIRPORT CLOUDY    41  39  93 NE7       29.98S
WHEELING       CLOUDY    40  38  93 N3        30.00F
KANKAKEE*      CLEAR     40  37  89 N7        29.97S
MORRIS*        CLOUDY    42  38  87 NE6       29.97S
LEWIS AIRPORT* CLOUDY    41  39  94 NE12      29.97F
NORTHERLY ISL    N/A     39  36  89 N9          N/A
$$

WIZ051-052-058>065-066-070>072-280800-
SOUTHEAST WISCONSIN

CITY           SKY/WX    TMP DP  RH WIND       PRES   REMARKS
MILWAUKEE      CLOUDY    40  34  79 N8        30.01S
KENOSHA*       CLOUDY    39  36  89 N7        30.00S
RACINE*        CLOUDY    38  34  85 N10       30.02S
WAUKESHA       CLOUDY    36  34  93 N5        30.02R FOG
WEST BEND      CLOUDY    37  36  93 N5        30.01S
$$

INZ001>003-010>013-019-020-280800-
NORTHWEST INDIANA

CITY           SKY/WX    TMP DP  RH WIND       PRES   REMARKS
GARY*          CLEAR     40  37  90 N9        29.98F
MICHIGAN CITY* NOT AVBL
RENSSELAER*    NOT AVBL
VALPARAISO     PTCLDY    39  37  92 N9G17     29.96R
$$

LMZ740>746-280800-
SOUTHERN LAKE MICHIGAN

STATION/POSITION TIME  SKY/WX   TEMP WIND        PRES    VSBY
                                AIR  DIR/SP/G
                 (UTC)          (F)  (DEG/KT/KT) (MB)    (MI)
HARRISON CRIB    0640            39  340/ 12/ 13   N/A
BURNHAM HARBOR   0700            39  340/ 11/ 12   N/A
CALUMET HARBOR   0642            38  330/ 10/ 12 1014.9F
BURNS HARBOR     0600            38  340/ 10/ 14 1015.2
MICHIGAN CITY    0640            38  330/ 11/ 12   N/A
$$

ABBREVIATIONS USED IN REMARKS
   TC - TEMPERATURE IN CELSIUS
  WCI - WIND CHILL INDEX
   HX - HEAT INDEX
  VSB - VISIBILITY
$$




USA.gov is the U.S. government's official web portal to all federal, state and local government web resources and services.